Regional Weather Roundup
Issued by NWS

Home | Current Version | Previous Version | Text Only | Print | Product List | Glossary On
Versions: 1 2 3 4 5 6 7 8 9 10 11 12 13 14 15 16 17 18 19 20 21 22 23 24 25 26 27 28 29 30 31 32 33 34 35 36 37 38 39 40 41 42 43 44 45 46 47 48 49 50
964
ASHW40 PHFO 232232
RWRHI

WEATHER ROUNDUP FOR HAWAII
NATIONAL WEATHER SERVICE HONOLULU HI
1200 PM HST SAT SEP 23 2017

THIS IS AN AUTOMATED REPORT THAT HAS NOT BEEN QUALITY CONTROLLED.

NOTE..."FAIR" INDICATES FEW OR NO CLOUDS BELOW 12,000 FEET WITH NO
SIGNIFICANT WEATHER AND/OR OBSTRUCTIONS TO VISIBILITY.

* - THESE SITES REPORT LIMITED FIELDS
# - BUOY DATA PROVIDED BY PACIFIC ISLANDS OCEAN OBSERVING SYSTEM.

HIZ001>004-232300-
KAUAI-NIIHAU-

CITY           SKY/WX    TMP DP  RH WIND       PRES   REMARKS
LIHUE APT      MOSUNNY   87  70  56 NE14      30.03F HX  92
PORT ALLEN*      N/A     88 N/A N/A NE16G22     N/A
POIPU*           N/A     86 N/A N/A E9G18       N/A
PRINCEVILLE*     N/A     82 N/A N/A E9          N/A
KOKOLE POINT*  NOT AVBL
MOLOAA DAIRY*    N/A     88  70  55 E3G13       N/A  HX  92
WAIMEA HTS*    NOT AVBL
PUU OPAE*      NOT AVBL
PUU LUA*       NOT AVBL
MAKAHA RIDGE*    N/A     81  64  57 SW3G12      N/A
$$

HIZ005>011-232300-
OAHU-

CITY           SKY/WX    TMP DP  RH WIND       PRES   REMARKS
HONOLULU       MOSUNNY   87  63  44 NE13G20   29.99F
KALAELOA       SUNNY     88  62  41 NE10G18   29.99F
KANEOHE MCB    NOT AVBL
WHEELER FIELD  FAIR      82  64  55 NE8       30.01F
BELLOWS*         N/A    N/A N/A N/A NE15        N/A
KAHUKU*          N/A    N/A N/A N/A NE7G15      N/A
WHEELER*       NOT AVBL
WAIANAE HARBOR NOT AVBL
DILLINGHAM*      N/A     66  48  52 S5G13       N/A
KAHUKU TRN*      N/A     88  70  55 W7G16       N/A  HX  92
KAWAILOA*        N/A     79  64  61 NE12G18     N/A
KII*             N/A     82  70  65 E12         N/A
MAKUA RANGE*     N/A     75  54  46 SW12G22     N/A
OAHU FOREST NW NOT AVBL
SCHOFIELD BRK*   N/A     64  45  48 MISG        N/A
SCHOFIELD S*   NOT AVBL
WAIANAE VLY*   NOT AVBL
KUAOKALA*      NOT AVBL
HONOULIUULI*   NOT AVBL
MOKUOLOE IS*   NOT AVBL
PALEHUA*       NOT AVBL
WAIAWA PHB*    NOT AVBL
$$

HIZ012>013-232300-
MOLOKAI-

CITY           SKY/WX    TMP DP  RH WIND       PRES   REMARKS
MOLOKAI AIRPT  SUNNY     83  68  60 N13G24    30.01F
KALAUPAPA      NOT AVBL
MAKAPULAPAI*     N/A     86  68  54 E14         N/A
MOLOKAI 1*     NOT AVBL
PUU ALII*        N/A     69  62  78 N2G9        N/A
$$

HIZ016-232300-
KAHOOLAWE-

CITY           SKY/WX    TMP DP  RH WIND       PRES   REMARKS
KAHOOLAWE*     NOT AVBL
HAKIOAWA*        N/A     81  64  56 MISG      30.41F
HONOKANAIA*      N/A     89  66  45 VRB15G25  29.94F HX  91
KANELOA*         N/A     82  68  61 SE12G21   30.07F
KEALIALALO*    NOT AVBL
LUA MAKIKA*    NOT AVBL
$$

HIZ014>015-232300-
LANAI-

CITY           SKY/WX    TMP DP  RH WIND       PRES   REMARKS
LANAI CITY     FAIR      80  66  62 NE23      30.03F
LANAI 1*       NOT AVBL
$$

HIZ017>028-232300-
MAUI-

CITY           SKY/WX    TMP DP  RH WIND       PRES   REMARKS
KAHULUI        MOSUNNY   86  70  58 NE18      29.99F HX  90
KAPALUA-W MAUI MOSUNNY   86  66  51 NE15      30.01
HANA AIRPORT   NOT AVBL
HANA*          NOT AVBL
HALEAKALA SUMM   N/A     54  18  24 NE13        N/A
MAALAEA BAY*     N/A     86 N/A N/A N20G30      N/A
HALEAKALA*     NOT AVBL
KAUPO GAP*     NOT AVBL
KULA 1*          N/A     59  55  88 N5          N/A
$$

HIZ023>026-232300-
BIG ISLAND OF HAWAII COAST AND LOWER SLOPES-

CITY           SKY/WX    TMP DP  RH WIND       PRES   REMARKS
KAILUA KONA    MOSUNNY   86  69  56 S14G22    29.95F HX  90
HILO           MOSUNNY   82  70  66 N9        29.99F
HONOKAA*         N/A     81 N/A N/A VRB1        N/A
KAWAIHAE MWT*    N/A     86 N/A N/A W7          N/A
KAWAIHAE*        N/A     82 N/A N/A W6        29.94F
SOUTH POINT*     N/A     81 N/A N/A N17G26      N/A
UPOLU AIRPORT* NOT AVBL
KAMUELA*       NOT AVBL
HAKALAU*         N/A     58  54  87 NE5G10      N/A
KALOKO-HONOKO*   N/A     88  70  55 S10G16    29.94F HX  92
PALI 2*          N/A     77  57  50 SW12G20     N/A
KEALAKOMO*       N/A     84  68  58 E20G26      N/A
KAUPULEHU*     NOT AVBL
KAPAPALA*        N/A     81  67  61 SE7G16      N/A
LOWER KAHUKU*    N/A     66  61  82 E3G12       N/A
PUHE CS*         N/A     88  66  48 W5          N/A  HX  90
PUHO CS*         N/A     86  66  51 SW3G9       N/A
PTA KEAMUKU*     N/A     77  55  47 NE18G29     N/A
WAIKOLOA*      NOT AVBL
$$

HIZ027>028-232300-
BIG ISLAND OF HAWAII INTERIOR AND SUMMMITS-

CITY           SKY/WX    TMP DP  RH WIND       PRES   REMARKS
BRADSHAW FIELD SUNNY     73  47  39 W5        30.31F
MK VISITOR CEN   N/A     55  39  54 W14         N/A
MAUNA KEA*       N/A     43   9  24 SW20        N/A
MAUNA LOA*       N/A     54  34  47 MISG        N/A
MAUNA LOA 1*   NOT AVBL
PTA KIPUKA*      N/A    N/A N/A N/A SE8G18      N/A
PTA RANGE 17*    N/A    N/A N/A N/A SE12G20     N/A
PTA WEST*        N/A    N/A N/A N/A NW10G26     N/A
NENE CABIN*      N/A     55  55 100 E5G10       N/A
AHUMOA*        NOT AVBL
PTA PORTABLE*  NOT AVBL
PUU MALI*        N/A     57  55  94 NE10G16     N/A
$$

HIC003-232300-
NORTHWEST ISLANDS-

CITY           SKY/WX    TMP DP  RH WIND       PRES   REMARKS
MIDWAY ISLAND  MOSUNNY   84  77  79 S10       30.04F HX  94
MIDWAY NOS*      N/A     82 N/A N/A MISG      30.03F
FRENCH FRIGATE NOT AVBL
$$

PHZ110>124-180-232300-
BUOY REPORTS

STATION/POSITION TIME  TEMP    WIND        PRES    WAVE   SWELL
                       AIR SEA DIR/SP/G            HT/PER HT/DIR
                 (UTC) (F)     (DEG/KT/KT) (MB)    (FT/S) (FT/D)
BUOY 51001       2210   80 82   80/ 10/ 12 1017.1
BUOY 51101       2150   80 82   90/ 10/ 12 1017.7F   5/11   5/ 30
BUOY 51100       NOT AVBL
BUOY 51002       2210   80 81   70/ 16/ 19 1014.5
BUOY 51003       2150   81 82   60/ 14/ 16 1015.1F   7/11   5/310
BUOY 51004       2150      81   70/ 12/ 14 1014.6F   5/ 8   5/ 60
WAIMEA BAY#      2202      80                N/A     4/11   2/320
MOKAPU POINT#    2204      81                N/A     5/ 8   2/ 70
LANAI#           NOT AVBL
BARBERS PT 2#    NOT AVBL
PAUWELA#         2209      81                N/A     5/12   2/330
HILO#            2157      81                N/A     5/ 8   2/120
KANEOHE BAY#     NOT AVBL
KANEOHE BAY 2#   NOT AVBL
HANALEI#         2152      81                N/A     5/11   2/320
KAHULUI HARBOR   2200   80 81   30/ 12/ 17 1015.7
HONOLULU HARBOR  2200   83 81   60/  7/ 12 1016.2
PEARL HARBOR#    2200      81                N/A     3/ 7   2/160
KILO NALU        NOT AVBL
HILO HARBOR      2200   83 81   40/  7/ 10 1015.3
MOKUOLOE         2136   80 81   40/  9/ 13 1016.4F
NAWILIWILI       2200   80      50/ 10/ 15 1016.4
WHOTS BUOY       NOT AVBL
BUOY 51028       NOT AVBL
$$

......................KEY........................................
  SKY/WX - SKY CONDITIONS/PRESENT WEATHER
  TMP    - TEMPERATURE IN FAHRENHEIT
  DWPT   - DEWPOINT IN FAHRENHEIT
  RH     - RELATIVE HUMIDITY IN PERCENT
  WIND   - DIRECTION AND SPEED /MPH FOR ISLANDS...KTS FOR BUOYS/
  PRES   - MEAN SEA LEVEL PRESSURE IN INCHES OF HG
  VSB    - VISIBILITY IN MILES
  HX     - HEAT INDEX
  WCI    - WIND CHILL INDEX
  VRB    - VARIABLE WIND DIRECTION
  N/A    - NOT AVAILABLE




USA.gov is the U.S. government's official web portal to all federal, state and local government web resources and services.